Sigla Aeroporto Press.
(hPa)
Vento
(°)/(Km/h)
T
(C)
Td
(C)
Umid.
Rel.
(%)
Visibilidade
(Km)
Nebulosidade Condições do Tempo Horário
Medição
SBAA CONCEIÇÃO ARAGUAIA BRASIL 1007 90/11.1 34 22 49 >= 10 Nublado - 2018-11-13 19:00 GMT
SBAF AFONSOS ARPT (MIL) BRASIL 1010 140/13 33 20 46 >= 10 Predominantemente claro - 2018-11-13 19:00 GMT
SBAM AMAPA AIRPORT BRASIL 1009 Ventos calmos 31 22 58 >= 10 Parcialmente nublado - 2011-10-13 18:00 GMT
SBAN ANAPOLIS (BRAZ-AFB) BRASIL 1015 300/5.6 27 18 57 >= 103.0 ao Nordeste Predominantemente claro pancadas nas vizinhanças 2018-11-13 19:00 GMT
SBAR ARACAJU/SANTA MARIA BRASIL 1011 100/22.2 28 21 65 >= 10 Parcialmente nublado - 2018-11-13 19:00 GMT
SBAT ALTA FLORESTA BRASIL 1007 20/5.6 34 23 52 >= 10 Parcialmente nublado - 2018-11-13 19:00 GMT
SBAU ARAÇATUBA BRASIL 1010 10/14.8 35 18 36 >= 10 Parcialmente nublado - 2018-11-13 18:00 GMT
SBBE BELEM/VAL DE CAES BRASIL 1007 20/14.8 30 24 70 >= 10 Nublado - 2018-11-13 20:00 GMT
SBBG BAGE/CMDT KRAEMER BRASIL 1003 10/16.7 22 21 94 8.0 Encoberto chuva leve 2018-11-13 19:00 GMT
SBBH BELO HORIZ/PAMPULHA BRASIL 1015 90/9.3 30 15 40 >= 10 Parcialmente nublado - 2018-11-13 18:00 GMT
SBBI CURITIBA/BACACHERI BRASIL 1014 330/35.2 29 18 51 >= 10 - - 2018-11-13 18:00 GMT
SBBQ BARBACENA (CIV/MIL) BRASIL 1018 70/13 26 17 57 >= 10 Predominantemente claro - 2018-11-13 19:00 GMT
SBBR BRASILIA (CIV/MIL) BRASIL 1015 20/14.8 26 18 61 >= 10 Parcialmente nublado - 2018-11-13 20:00 GMT
SBBU BAURU BRASIL 1011 340/13 35 19 39 >= 10 Predominantemente claro - 2018-11-13 19:00 GMT
SBBV BOA VISTA (CIV/MIL) BRASIL 1007 70/5.6 31 24 66 >= 10 Predominantemente claro pancadas nas vizinhanças 2018-11-13 20:00 GMT
SBBW BERRA DO GARCAS BRASIL 1010 70/3.7 33 24 59 >= 10 Parcialmente nublado - 2018-11-13 18:00 GMT
SBCB SAO PAULO/CUMBIC AB BRASIL 1013 80/40.8 26 22 78 >= 10 - - 2018-11-13 20:00 GMT
SBCC CACHIMBO BRASIL 1010 320/7.4 27 21 69 >= 10 Nublado - 2018-11-13 18:00 GMT
SBCF BELO HORIZ/TANCREDO BRASIL 1015 80/14.8 28 16 48 >= 10 Parcialmente nublado - 2018-11-13 19:00 GMT
SBCG CAMPO GRANDE INTL BRASIL 1008 310/22.2 34 22 49 >= 10 Predominantemente claro - 2018-11-13 19:00 GMT
SBCI CAROLINA AIRPORT BRASIL 1008 160/9.3 31 23 62 >= 10 Parcialmente nublado trovoadas sem precipitaçoes 2018-11-13 19:00 GMT
SBCJ CARAJAS/MARABA BRASIL 1012 70/7.4 29 21 62 >= 10 Parcialmente nublado - 2018-11-13 19:00 GMT
SBCO PORTO ALEGRE/CANOAS BRASIL 1004 350/7.4 34 22 49 >= 10 - - 2018-11-13 19:00 GMT
SBCP CAMPOS/BARTOLOMEU BRASIL 1013 80/22.2 28 21 65 >= 10 Parcialmente nublado - 2018-11-13 18:00 GMT
SBCR CORUMBA INTL ARPT BRASIL 1004 330/14.8 36 24 50 >= 10 Parcialmente nublado - 2018-11-13 19:00 GMT
SBCT CURITIBA/AFONSO PENA BRASIL 1014 340/14.8 30 18 48 >= 10 - - 2018-11-13 20:00 GMT
SBCV CARAVELAS AIRPORT BRASIL 1012 20/18.5 25 22 83 >= 10 - - 2008-10-27 22:00 GMT
SBCY CUIABA/MARECHAL RON BRASIL 1007 350/7.4 33 22 52 >= 10 Parcialmente nublado - 2018-11-13 18:00 GMT
SBCZ CRUZEIRO DO SUL BRASIL 1007 200/11.1 31 25 70 >= 10 Nublado - 2018-11-13 18:00 GMT
SBDN PRESIDENTE PRUDENTE BRASIL 1008 20/14.8 36 15 28 >= 10 Parcialmente nublado - 2018-11-13 19:00 GMT
SBEG EDUARDO GOMES INTL BRASIL 1005 300/5.6 32 23 59 >= 10 Parcialmente nublado - 2018-11-13 20:00 GMT
SBEK JACAREACANGA BRASIL 1005 110/13 36 26 56 >= 10 Predominantemente claro - 2018-11-13 19:00 GMT
SBES SAO PEDRO DA ALDEIA BRASIL 1012 70/38.9 27 20 65 >= 10 Predominantemente claro - 2018-11-13 19:00 GMT
SBFI FOZ DO IGUACU ARPT BRASIL 1006 30/18.5 34 20 44 >= 10 Parcialmente nublado - 2018-11-13 19:00 GMT
SBFL FLORIANOPOLIS ARPT BRASIL 1010 40/25.9 27 21 69 >= 10 Parcialmente nublado - 2018-11-13 19:00 GMT
SBFN FERNANDO DE NORONHA BRASIL 1011 130/25.9 28 23 74 >= 10 Parcialmente nublado - 2018-11-13 19:00 GMT
SBFZ FORTALEZA/PINTO MAR BRASIL 1009 70/22.2 28 23 74 >= 10 Predominantemente claro - 2018-11-13 20:00 GMT
SBGL GALEAO/RIO(CIV/MIL) BRASIL 1010 140/18.5 30 22 62 >= 10 - - 2018-11-13 20:00 GMT
SBGO GOIANIA/SANTA GENOV BRASIL 1012 300/13 30 21 58 >= 10 Predominantemente claro pancadas nas vizinhanças 2018-11-13 19:00 GMT
SBGP GUARAPUAVA BRASIL 1014 330/14.8 27 21 69 >= 10 Nublado - 2013-01-25 13:00 GMT
SBGR GUARULHOS (CIV/MIL) BRASIL 1013 320/13 32 19 46 >= 10 Nublado - 2018-11-13 19:00 GMT
SBGW GUARATINGUETA (MIL) BRASIL 1012 270/3.7 34 18 38 >= 10 Parcialmente nublado - 2018-11-13 19:00 GMT
SBHT ALTAMIRA BRASIL 1007 100/11.1 34 21 46 >= 10 Nublado - 2018-11-13 19:00 GMT
SBIC ITACOATIARA BRASIL 1007 80/16.7 34 22 49 >= 10 Predominantemente claro - 2018-11-13 18:00 GMT
SBIH ITAITUBA BRASIL 1007 120/14.8 36 23 47 >= 10 Predominantemente claro - 2018-11-13 18:00 GMT
SBIL ILHEUS AIRPORT BRASIL 1014 70/9.3 25 24 94 >= 10 Nublado pancadas nas vizinhanças 2018-11-13 18:00 GMT
SBIZ IMPERATRIZE BRASIL 1006 130/7.4 36 22 44 >= 10 Predominantemente claro - 2018-11-13 19:00 GMT
SBJF JUIZ FORA/FRANCISCO BRASIL 1022 360/5.6 15 13 87 >= 10 - - 2017-08-08 01:00 GMT
SBJP JOAO PESSOA/PRES CA BRASIL 1011 100/27.8 29 21 62 >= 10 Nublado - 2018-11-13 18:00 GMT
SBJR RIO/JACAREPAGUA BRASIL 1010 140/14.8 33 22 52 >= 10 Predominantemente claro - 2018-11-13 18:00 GMT
SBJV JOINVILLE BRASIL 1009 60/11.1 26 22 78 >= 10 Nublado - 2018-11-13 19:00 GMT
SBKG CAMPINA GRANDE BRASIL 1012 110/25.9 30 17 45 >= 10 - - 2018-11-13 19:00 GMT
SBKP CAMPINAS/VIRACOPOS BRASIL 1012 20/13 32 15 35 >= 10 Predominantemente claro - 2018-11-13 19:00 GMT
SBLB LABREA-IN-AMAZONAS BRASIL 1015 - - - - >= 10 Parcialmente nublado - 2018-11-13 18:00 GMT
SBLN LINS BRASIL 1012 90/18.5 22 21 94 5.0 Nublado trovoadas com chuva leve 2008-01-11 08:00 GMT
SBLO LONDRINA AIRPORT BRASIL 1010 360/14.8 35 18 36 >= 10 Predominantemente claro - 2018-11-13 20:00 GMT
SBLP BOM JESUS DA LAPA BRASIL - 330/7.4 33 18 41 >= 10 Parcialmente nublado - 2018-11-13 18:00 GMT
SBLS LAGOA SANTA(CV/MIL) BRASIL 1015 140/14.8 28 16 48 >= 10 Predominantemente claro - 2018-11-13 19:00 GMT
SBMA MARABA BRASIL 1007 30/7.4 36 23 47 >= 10 Predominantemente claro - 2018-11-13 19:00 GMT
SBMD MONTE DOURADO BRASIL 1008 100/11.1 33 21 49 >= 10 Parcialmente nublado - 2018-11-13 19:00 GMT
SBME MACAE BRASIL 1012 80/25.9 28 22 69 >= 10 Predominantemente claro - 2018-11-13 19:00 GMT
SBMG MARINGA BRASIL 1009 340/20.4 34 18 38 >= 10 Parcialmente nublado - 2018-11-13 19:00 GMT
SBMK MONTES CLAROS BRASIL 1013 -/7.4 31 18 45 >= 10 Predominantemente claro - 2018-11-13 18:00 GMT
SBMN MANAUS/PONTA PELADA BRASIL 1005 30/9.3 33 24 59 >= 10 Nublado - 2018-11-13 20:00 GMT
SBMO MACEIO/CAMPO PALMAR BRASIL 1012 90/22.2 27 20 65 >= 10 Parcialmente nublado - 2018-11-13 19:00 GMT
SBMQ MACAPA INTL AIRPORT BRASIL 1008 50/24.1 34 23 52 >= 10 Predominantemente claro - 2018-11-13 20:00 GMT
SBMS MOCORO/17 ROSADO BRASIL 1007 20/29.6 35 22 47 >= 10 Predominantemente claro - 2018-11-13 18:00 GMT
SBMT MARTE (CIV/MIL) BRASIL 1013 340/7.4 31 16 40 >= 10 - - 2018-11-13 19:00 GMT
SBMY MANICORE BRASIL 1007 Ventos calmos 25 24 94 >= 10 Encoberto trovoadas sem precipitaçoes 2018-11-13 18:00 GMT
SBNT NATAL/AUGUSTO SEVER BRASIL 1011 120/29.6 29 22 66 >= 10 Parcialmente nublado - 2018-11-13 20:00 GMT
SBOI OIAPOQUE BRASIL 1009 150/9.3 28 23 74 >= 10 Nublado - 2018-11-13 20:00 GMT
SBPA PORTO ALEGRE/SALGAD BRASIL 1004 310/5.6 33 21 49 >= 10 - - 2018-11-13 19:00 GMT
SBPB PARNAIBA AIRPORT BRASIL 1007 70/29.6 31 21 55 >= 10 Predominantemente claro - 2018-11-13 19:00 GMT
SBPC POCOS DE CALDAS BRASIL 1018 30/7.4 29 18 51 >= 10 Parcialmente nublado - 2018-11-13 19:00 GMT
SBPF PASSO FUNDO/LAURO BRASIL 1010 350/37.1 30 18 48 >= 10 Nublado - 2018-11-13 18:00 GMT
SBPG PARANAGUA BRASIL 1015 170/9.3 30 18 48 >= 10 Parcialmente nublado - 2018-11-12 17:00 GMT
SBPK PELOTAS BRASIL 1005 10/11.1 26 23 83 >= 10 Encoberto - 2018-11-13 19:00 GMT
SBPL PETROLINA AIRPORT BRASIL 1009 100/22.2 36 13 25 >= 10 Parcialmente nublado - 2018-11-13 19:00 GMT
SBPN PORTO NACIONAL ARPT BRASIL 1012 300/9.3 28 24 78 >= 10 - - 2015-11-11 11:15 GMT
SBPP PONTA PORA INTL BRASIL 1009 230/11.1 30 23 66 >= 10 Predominantemente claro - 2018-11-13 19:00 GMT
SBPV PORTO VELHO(CV/MIL) BRASIL 1005 10/13 24 23 94 5.0 Nublado chuvisco leve 2018-11-13 19:25 GMT
SBQU VITORIA DA CONQUIST BRASIL - 360/1.9 - - - >= 10 - - 2008-07-23 03:00 GMT
SBQV VITORIA DA CONQUIST BRASIL 1022 110/18.5 27 11 36 >= 10 Predominantemente claro - 2011-09-12 17:00 GMT
SBRB RIO BRANCO/MEDICI BRASIL 1008 Ventos calmos 25 24 94 5.0 Predominantemente claro pancadas de chuva leve e trovoadas nas vizinhanças 2018-11-13 19:00 GMT
SBRF RECIFE/GUARARAPES BRASIL 1011 140/18.5 28 22 69 >= 10 Parcialmente nublado - 2018-11-13 19:00 GMT
SBRJ SANTOS DUMONT/RIO BRASIL 1010 150/20.4 29 23 70 >= 10 Predominantemente claro - 2018-11-13 19:00 GMT
SBRP LEITE LOPES/RIBEIR& BRASIL 1011 250/9.3 28 19 58 >= 10 Predominantemente claro - 2018-11-13 19:00 GMT
SBSC SANTA CRUZ (MIL) BRASIL 1010 120/9.3 34 21 46 >= 10 Predominantemente claro - 2018-11-13 19:00 GMT
SBSJ SAO JOSE DOS CAMPO& BRASIL 1012 100/3.7 32 18 43 >= 10 Predominantemente claro - 2018-11-13 20:00 GMT
SBSL SAO LUIS/MARECHAL BRASIL 1008 30/24.1 29 24 74 >= 10 Predominantemente claro - 2018-11-13 20:00 GMT
SBSM SANTA MARIA(CV/MIL) BRASIL 1007 250/7.4 23 22 94 4.5 Nublado trovoadas com chuva leve 2018-11-13 19:00 GMT
SBSN SANTAREM INTL ARPT BRASIL 1006 100/14.8 33 22 52 >= 10 Predominantemente claro - 2018-11-13 20:00 GMT
SBSP SAO PAULO/CONGONHAS BRASIL 1014 340/7.4 31 15 38 >= 10 Predominantemente claro - 2018-11-13 20:00 GMT
SBST SANTOS (BRAZ-AFB) BRASIL 1009 130/7.4 28 22 69 >= 10 Parcialmente nublado - 2018-11-13 19:00 GMT
SBSV SALVADOR/DOIS JULHO BRASIL 1013 90/18.5 28 23 74 >= 10 Predominantemente claro - 2018-11-13 20:00 GMT
SBSY SANTA ISABEL MORRO BRASIL 1013 50/7.4 32 17 40 9.0 Nenhuma nuvem significativa - 2018-11-13 18:00 GMT
SBTA TAUBATE BRASIL 1012 100/7.4 30 18 48 >= 10 Nublado - 2018-11-13 18:00 GMT
SBTC TAPURUCUARA BRASIL 1014 20/14.8 27 24 83 >= 10 Nublado - 2018-11-13 18:00 GMT
SBTE TERESINA AIRPORT BRASIL 1006 80/7.4 38 16 27 >= 10 Parcialmente nublado - 2018-11-13 19:00 GMT
SBTF TEFE BRASIL 1004 80/11.1 30 26 79 >= 10 Nublado - 2018-11-13 20:00 GMT
SBTK TARAUACA BRASIL 1007 280/5.6 26 23 83 >= 10 Parcialmente nublado - 2018-09-14 21:00 GMT
SBTT TABATINGA INTL ARPT BRASIL 1005 310/11.1 28 23 74 >= 10 Predominantemente claro - 2018-11-13 20:00 GMT
SBTU TUCURUI BRASIL 1010 - - - - >= 10 Predominantemente claro - 2018-11-13 19:00 GMT
SBUA SAO GABRIEL CACHOEI BRASIL 1006 360/7.4 31 24 66 >= 10 Parcialmente nublado - 2018-11-13 19:00 GMT
SBUF PAULO AFONSO BRASIL 1009 120/24.1 35 13 26 >= 10 Predominantemente claro - 2018-11-13 19:00 GMT
SBUG URUGUAIANA/RUBEM BRASIL 1003 40/14.8 24 23 94 >= 10 Encoberto trovoadas sem precipitaçoes 2018-11-13 19:00 GMT
SBUL UBERLANDIA BRASIL 1014 10/18.5 28 17 51 >= 10 Predominantemente claro - 2018-11-13 19:00 GMT
SBUP URUBUPUNGA/CASTILHO BRASIL 1011 270/16.7 25 20 73 >= 10 Encoberto trovoadas sem precipitaçoes 2007-11-07 22:00 GMT
SBUR UBERABA BRASIL 1013 50/14.8 32 16 38 >= 10 Predominantemente claro - 2018-11-13 19:00 GMT
SBVH VILHENA BRASIL 1009 100/9.3 24 23 94 >= 10 Nublado trovoadas com chuva leve 2018-11-13 19:00 GMT
SBVT VITORIA/GOIABEIRAS BRASIL 1014 70/16.7 28 23 74 >= 10 Parcialmente nublado - 2018-11-13 18:00 GMT
SBYA IAUARETE (PRIVATE) BRASIL 1008 230/5.6 31 23 62 >= 10 Parcialmente nublado - 2015-11-06 19:00 GMT
SBYS PIRASSUNUNGA/CAMPO BRASIL 1012 50/11.1 32 17 40 >= 10 Predominantemente claro - 2018-11-13 19:00 GMT